| time (UTC) | temp F | wind direction | speed MPH | gust MPH | rain 1hr in | rain 24hr in | rain mn in | humidity % | barometer mb |
| 20260902154538 | 74 | 13 | 7.0 | 16.0 | 0.00 | 0.00 | 0.00 | 58 | 1010.2 |
| 20260902153015 | 73 | 173 | 8.0 | 18.0 | 0.00 | 0.00 | 0.00 | 63 | 1010.2 |
| 20260902151552 | 72 | 27 | 10.0 | 17.0 | 0.00 | 0.00 | 0.00 | 69 | 1010.1 |
| 20260902150034 | 70 | 360 | 8.0 | 14.0 | 0.00 | 0.00 | 0.00 | 73 | 1010.3 |
| 20260902144546 | 68 | 146 | 8.0 | 13.0 | 0.00 | 0.00 | 0.00 | 78 | 1010.3 |
| 20260902143028 | 67 | 360 | 4.0 | 6.0 | 0.00 | 0.00 | 0.00 | 85 | 1010.5 |
| 20260902141601 | 65 | 360 | 3.0 | 5.0 | 0.00 | 0.00 | 0.00 | 86 | 1010.3 |
| 20260902141502 | 65 | 360 | 2.0 | 5.0 | 0.00 | 0.00 | 0.00 | 87 | 1010.3 |
| 20260902140039 | 64 | 190 | 2.0 | 4.0 | 0.00 | 0.00 | 0.00 | 87 | 1010.3 |
| 20260902134554 | 63 | 202 | 1.0 | 3.0 | 0.00 | 0.00 | 0.00 | 86 | 1010.2 |
| 20260902133034 | 63 | 188 | 0.0 | 3.0 | 0.00 | 0.00 | 0.00 | 85 | 1010.1 |
| 20260902131512 | 63 | 188 | 2.0 | 4.0 | 0.00 | 0.00 | 0.00 | 85 | 1009.9 |
| 20260902130055 | 63 | 185 | 2.0 | 6.0 | 0.00 | 0.00 | 0.00 | 85 | 1009.8 |
| 20260902124506 | 63 | 165 | 3.0 | 5.0 | 0.00 | 0.00 | 0.00 | 84 | 1009.9 |
| 20260902123053 | 63 | 165 | 3.0 | 5.0 | 0.00 | 0.00 | 0.00 | 84 | 1009.6 |
| 20260902121534 | 64 | 165 | 4.0 | 6.0 | 0.00 | 0.00 | 0.00 | 84 | 1009.5 |
| 20260902120105 | 64 | 145 | 3.0 | 8.0 | 0.00 | 0.00 | 0.00 | 84 | 1009.4 |
| 20260902114522 | 64 | 132 | 5.0 | 7.0 | 0.00 | 0.00 | 0.00 | 84 | 1009.5 |
| 20260902113006 | 64 | 157 | 4.0 | 7.0 | 0.00 | 0.00 | 0.00 | 83 | 1009.5 |
| 20260902111553 | 65 | 171 | 4.0 | 5.0 | 0.00 | 0.00 | 0.00 | 83 | 1009.5 |
| 20260902110033 | 65 | 171 | 4.0 | 6.0 | 0.00 | 0.00 | 0.00 | 82 | 1009.5 |
| 20260902104613 | 65 | 184 | 3.0 | 5.0 | 0.00 | 0.00 | 0.00 | 82 | 1009.5 |
| 20260902103052 | 65 | 173 | 4.0 | 7.0 | 0.00 | 0.00 | 0.00 | 81 | 1009.6 |
| 20260902101513 | 65 | 166 | 4.0 | 6.0 | 0.00 | 0.00 | 0.00 | 81 | 1009.7 |
| 20260902100056 | 66 | 166 | 3.0 | 5.0 | 0.00 | 0.00 | 0.00 | 81 | 1010.0 |
| 20260902094524 | 66 | 166 | 3.0 | 9.0 | 0.00 | 0.00 | 0.00 | 80 | 1010.0 |
| 20260902093009 | 66 | 163 | 4.0 | 7.0 | 0.00 | 0.00 | 0.00 | 80 | 1009.9 |
| 20260902091555 | 66 | 182 | 4.0 | 6.0 | 0.00 | 0.00 | 0.00 | 79 | 1010.2 |
| 20260902090042 | 66 | 173 | 5.0 | 9.0 | 0.00 | 0.00 | 0.00 | 79 | 1010.2 |
| 20260902084504 | 66 | 148 | 10.0 | 18.0 | 0.00 | 0.00 | 0.00 | 76 | 1010.4 |
| 20260902083038 | 66 | 175 | 5.0 | 7.0 | 0.00 | 0.00 | 0.00 | 75 | 1010.2 |
| 20260902081528 | 66 | 161 | 4.0 | 8.0 | 0.00 | 0.00 | 0.00 | 73 | 1010.4 |
| 20260902080112 | 66 | 157 | 5.0 | 8.0 | 0.00 | 0.00 | 0.00 | 73 | 1010.2 |
| 20260902074538 | 67 | 160 | 4.0 | 7.0 | 0.00 | 0.00 | 0.00 | 73 | 1010.2 |
| 20260902073020 | 67 | 163 | 4.0 | 8.0 | 0.00 | 0.00 | 0.00 | 72 | 1010.2 |
| 20260902071506 | 67 | 167 | 5.0 | 7.0 | 0.00 | 0.00 | 0.00 | 73 | 1010.2 |
| 20260902070024 | 67 | 167 | 4.0 | 7.0 | 0.00 | 0.00 | 0.00 | 72 | 1010.3 |
| 20260902064605 | 67 | 168 | 4.0 | 7.0 | 0.00 | 0.00 | 0.00 | 71 | 1010.3 |
| 20260902063104 | 66 | 144 | 5.0 | 9.0 | 0.00 | 0.00 | 0.00 | 72 | 1010.3 |
| 20260902061557 | 66 | 169 | 3.0 | 6.0 | 0.00 | 0.00 | 0.00 | 72 | 1010.4 |
| 20260902060042 | 66 | 169 | 3.0 | 5.0 | 0.00 | 0.00 | 0.00 | 71 | 1010.5 |
| 20260902054556 | 67 | 169 | 3.0 | 5.0 | 0.00 | 0.00 | 0.00 | 70 | 1010.5 |
| 20260902053041 | 67 | 150 | 3.0 | 6.0 | 0.00 | 0.00 | 0.00 | 69 | 1010.6 |
| 20260902051522 | 68 | 136 | 3.0 | 5.0 | 0.00 | 0.00 | 0.00 | 67 | 1010.7 |
| 20260902050059 | 69 | 136 | 2.0 | 4.0 | 0.00 | 0.00 | 0.00 | 65 | 1010.7 |
| 20260902044551 | 70 | 136 | 2.0 | 4.0 | 0.00 | 0.00 | 0.00 | 61 | 1010.8 |
| 20260902043008 | 71 | 143 | 3.0 | 4.0 | 0.00 | 0.00 | 0.00 | 60 | 1010.7 |
| 20260902041553 | 72 | 53 | 1.0 | 4.0 | 0.00 | 0.00 | 0.00 | 58 | 1010.6 |
| 20260902040010 | 73 | 194 | 1.0 | 3.0 | 0.00 | 0.00 | 0.00 | 56 | 1010.6 |
| 20260902034548 | 74 | 194 | 1.0 | 3.0 | 0.00 | 0.00 | 0.00 | 52 | 1010.5 |
| 20260902033036 | 74 | 188 | 2.0 | 6.0 | 0.00 | 0.00 | 0.00 | 51 | 1010.3 |
| 20260902031538 | 74 | 194 | 5.0 | 8.0 | 0.00 | 0.00 | 0.00 | 50 | 1010.2 |
| 20260902024526 | 75 | 188 | 4.0 | 9.0 | 0.00 | 0.00 | 0.00 | 48 | 1009.7 |
| 20260902023019 | 75 | 210 | 4.0 | 8.0 | 0.00 | 0.00 | 0.00 | 47 | 1009.7 |
| 20260902021550 | 76 | 207 | 2.0 | 6.0 | 0.00 | 0.00 | 0.00 | 44 | 1009.5 |
| 20260902020020 | 77 | 229 | 1.0 | 5.0 | 0.00 | 0.00 | 0.00 | 43 | 1009.3 |
| 20260902014513 | 78 | 360 | 5.0 | 9.0 | 0.00 | 0.00 | 0.00 | 41 | 1009.2 |
| 20260902013043 | 79 | 242 | 6.0 | 14.0 | 0.00 | 0.00 | 0.00 | 38 | 1009.3 |
| 20260902011531 | 80 | 218 | 5.0 | 14.0 | 0.00 | 0.00 | 0.00 | 39 | 1009.4 |
| 20260902010113 | 80 | 205 | 5.0 | 10.0 | 0.00 | 0.00 | 0.00 | 41 | 1009.4 |
| 20260902004528 | 81 | 180 | 7.0 | 14.0 | 0.00 | 0.00 | 0.00 | 41 | 1009.4 |
| 20260902003020 | 81 | 240 | 4.0 | 14.0 | 0.00 | 0.00 | 0.00 | 40 | 1009.5 |
| 20260902001556 | 82 | 217 | 9.0 | 17.0 | 0.00 | 0.00 | 0.00 | 37 | 1009.7 |
| 20260902000043 | 82 | 211 | 7.0 | 15.0 | 0.00 | 0.00 | 0.00 | 40 | 1009.7 |
| 20260901234505 | 82 | 200 | 8.0 | 13.0 | 0.00 | 0.23 | 0.00 | 38 | 1009.8 |
| 20260901233047 | 83 | 236 | 8.0 | 15.0 | 0.00 | 0.23 | 0.00 | 36 | 1009.8 |
| 20260901231531 | 84 | 259 | 7.0 | 14.0 | 0.00 | 0.23 | 0.00 | 35 | 1009.8 |
| 20260901230111 | 85 | 199 | 8.0 | 15.0 | 0.00 | 0.23 | 0.00 | 32 | 1009.9 |
| 20260901224538 | 86 | 196 | 9.0 | 18.0 | 0.00 | 0.23 | 0.00 | 34 | 1009.9 |
| 20260901223017 | 86 | 221 | 7.0 | 14.0 | 0.00 | 0.23 | 0.00 | 34 | 1010.1 |
| 20260901221610 | 86 | 259 | 4.0 | 19.0 | 0.00 | 0.23 | 0.00 | 32 | 1010.1 |
| 20260901220025 | 85 | 194 | 5.0 | 14.0 | 0.00 | 0.23 | 0.00 | 42 | 1010.4 |
| 20260901214503 | 85 | 197 | 7.0 | 14.0 | 0.00 | 0.23 | 0.00 | 36 | 1010.5 |
| 20260901213041 | 83 | 201 | 4.0 | 14.0 | 0.00 | 0.23 | 0.00 | 36 | 1010.8 |
| 20260901211519 | 83 | 219 | 8.0 | 16.0 | 0.00 | 0.23 | 0.00 | 36 | 1010.9 |
| 20260901210057 | 84 | 190 | 6.0 | 14.0 | 0.00 | 0.23 | 0.00 | 42 | 1010.8 |
| 20260901204519 | 84 | 203 | 7.0 | 14.0 | 0.00 | 0.23 | 0.00 | 45 | 1010.9 |
| 20260901203007 | 83 | 151 | 9.0 | 16.0 | 0.00 | 0.23 | 0.00 | 44 | 1011.1 |
| 20260901201549 | 82 | 217 | 5.0 | 13.0 | 0.00 | 0.23 | 0.00 | 46 | 1011.3 |
| 20260901200003 | 81 | 183 | 11.0 | 20.0 | 0.00 | 0.23 | 0.00 | 49 | 1011.5 |
| 20260901194537 | 81 | 200 | 6.0 | 19.0 | 0.00 | 0.23 | 0.00 | 48 | 1011.7 |
| 20260901193019 | 82 | 115 | 11.0 | 23.0 | 0.00 | 0.23 | 0.00 | 48 | 1011.8 |
| 20260901191559 | 81 | 122 | 9.0 | 21.0 | 0.00 | 0.23 | 0.00 | 49 | 1012.0 |
| 20260901191504 | 81 | 145 | 11.0 | 21.0 | 0.00 | 0.23 | 0.00 | 49 | 1012.1 |
| 20260901190041 | 82 | 141 | 9.0 | 16.0 | 0.00 | 0.23 | 0.00 | 50 | 1012.3 |
| 20260901184602 | 81 | 160 | 13.0 | 19.0 | 0.00 | 0.23 | 0.00 | 49 | 1012.5 |
| 20260901183057 | 80 | 150 | 9.0 | 19.0 | 0.00 | 0.23 | 0.00 | 51 | 1012.5 |
| 20260901181510 | 79 | 166 | 11.0 | 18.0 | 0.00 | 0.23 | 0.00 | 52 | 1012.7 |
| 20260901180053 | 79 | 134 | 8.0 | 16.0 | 0.00 | 0.23 | 0.00 | 52 | 1012.8 |
| 20260901174508 | 78 | 190 | 10.0 | 18.0 | 0.00 | 0.23 | 0.00 | 55 | 1012.8 |
| 20260901173107 | 77 | 153 | 6.0 | 13.0 | 0.00 | 0.23 | 0.00 | 56 | 1012.9 |
| 20260901171531 | 77 | 175 | 7.0 | 13.0 | 0.00 | 0.23 | 0.00 | 59 | 1013.2 |
| 20260901170104 | 75 | 150 | 5.0 | 9.0 | 0.00 | 0.23 | 0.00 | 61 | 1013.2 |
| 20260901164519 | 74 | 134 | 7.0 | 12.0 | 0.00 | 0.23 | 0.00 | 62 | 1013.2 |
| 20260901163114 | 73 | 360 | 6.0 | 12.0 | 0.00 | 0.23 | 0.00 | 65 | 1013.1 |
| 20260901161548 | 71 | 177 | 6.0 | 10.0 | 0.00 | 0.23 | 0.00 | 67 | 1013.1 |
| 20260901160112 | 70 | 189 | 6.0 | 12.0 | 0.00 | 0.23 | 0.00 | 71 | 1013.0 |